User: anonymous   Login
Location: Unspecified
(0.0000°N, 0.0000°E)
Time: 18:08:47
(UTC+00:00)
Language:

YAOGAN-30 P - Orbit

View from above orbital plane
View from above orbital plane
View from above satellite
View from above satellite

Ground track
Ground track

The orbit is defined by the following mean orbital elements,

1 44450U          26145.36166631 +.00000000 +00000-0 +17101-3 0 00003
2 44450  34.9916 108.7372 0009359 237.4114 122.5690 15.02561477    00
Epoch (UTC): 25 May 2026 08:40:47
Eccentricity: 0.0009359
inclination: 34.9916°
perigee height: 553 km
apogee height: 565 km
right ascension of ascending node: 108.7372°
argument of perigee: 237.4114°
revolutions per day: 15.02561477
mean anomaly at epoch: 122.5690°

The dashed part of the orbit path shows where the satellite is in the earth's shadow,  

DLR